Location: Devore Heights
(34.2372°N, 117.4156°W)
Time: 19:23:10
(UTC+00:00)

deb Explorer IX - Pass Details

Date: 18 September 2024
Orbit: 502 x 816 km, 38.7° (Epoch: 15 October)

Event Time Altitude Azimuth Distance (km) Brightness Sun altitude
Rises 02:15:31 0° 245° (WSW) 3,302 ? -5.6°
Maximum altitude 02:23:45 84° 158° (SSE) 852 ? -7.3°
Drops below altitude 10° 02:29:43 10° 71° (ENE) 2,469 ? -8.5°
Enters shadow 02:30:26 - 71° (ENE) 2,728 ? -8.6°
Sets 02:32:15 0° 70° (ENE) 3,392 - -9.0°
